Wind_Speed
36 36 36 36 35 36 36 37 39 39 39 39 40 41 41 41 41 42 42 42 42 42 42 43 43 43 43 43 43 43 42 42 42 42 42 42 43 44 44 44 44 44 44 44
35 35 36 36 36 36 37 38 40 40 40 40 41 41 40 41 42 42 42 42 42 43 43 43 43 43 42 43 42 42 42 41 41 40 41 41 42 42 42 43 44 44 44 44
36 36 37 36 36 37 39 39 40 41 40 40 41 40 41 42 41 41 41 42 43 43 43 43 43 43 42 41 41 41 41 40 40 39 40 40 40 40 41 42 42 43 43 44
38 38 38 38 38 38 39 40 40 40 40 40 40 41 41 42 42 42 42 43 43 43 43 43 42 41 41 40 40 39 39 39 38 39 39 39 39 39 40 40 41 41 42 43
39 39 40 38 39 40 40 39 40 40 40 40 40 41 41 42 42 42 42 42 42 42 42 42 41 40 39 38 38 38 37 37 38 38 39 38 39 39 39 39 39 40 40 41
40 41 41 40 40 40 41 40 39 39 39 40 40 40 39 40 41 41 41 42 42 41 41 41 41 40 39 37 37 36 36 36 37 37 37 38 38 38 37 37 37 38 38 38
40 41 41 41 40 40 39 40 39 39 39 39 39 39 39 40 41 41 42 42 41 40 40 40 39 38 37 36 36 34 33 34 34 35 34 34 34 34 34 35 35 35 35 35
40 41 40 39 40 40 40 40 40 39 39 39 39 39 40 40 41 41 41 41 40 39 39 38 37 36 35 35 34 32 30 31 32 32 31 31 32 32 32 32 33 33 33 33
39 39 40 39 40 40 40 39 39 38 38 38 39 39 39 40 41 41 41 40 39 39 38 37 37 36 35 34 33 31 29 29 29 29 29 29 30 31 31 31 31 31 32 32
38 38 39 39 40 40 39 39 38 38 38 38 38 39 39 40 40 40 39 39 38 38 38 37 37 35 34 33 31 30 28 28 28 28 28 28 29 30 30 30 30 30 30 30
37 38 38 39 40 40 39 38 38 38 38 38 39 39 40 39 39 39 38 38 38 37 37 37 36 35 33 31 30 28 28 28 28 28 28 28 28 28 29 29 29 30 29 28
37 38 38 39 39 39 39 38 38 38 39 39 40 40 40 39 39 38 38 37 37 37 36 35 34 33 32 30 29 28 27 28 27 27 27 27 27 26 27 27 28 28 28 27
37 38 38 38 38 38 38 38 38 38 39 40 40 39 39 38 38 37 37 36 35 35 34 33 32 31 30 29 29 28 28 27 27 26 26 26 26 25 26 27 27 27 27 27
37 37 37 37 37 37 38 38 38 39 39 39 39 38 37 36 36 35 35 34 34 33 32 31 30 30 30 29 29 28 28 27 26 26 26 26 25 25 25 25 26 26 27 27
37 37 37 37 37 37 37 38 38 38 38 38 37 37 36 36 35 35 34 33 33 32 31 30 30 30 30 29 28 28 27 27 26 26 26 25 25 24 24 24 25 26 26 26
36 36 36 36 36 37 37 37 37 37 37 37 36 36 35 35 34 34 33 32 32 31 30 30 30 30 29 28 28 27 27 26 26 26 25 25 24 24 24 23 23 23 24 24
35 35 35 35 36 36 36 36 37 36 36 36 35 35 34 34 33 33 33 32 31 30 30 30 29 29 29 28 27 27 26 25 25 24 24 23 22 22 22 22 21 22 22 22
35 35 35 35 35 35 35 35 35 35 35 35 35 34 33 33 32 32 32 31 31 30 30 29 29 28 27 27 26 26 25 24 24 23 22 21 21 21 21 21 20 20 20 19
33 33 33 33 33 33 33 34 34 34 34 34 33 32 31 31 31 31 31 30 30 30 29 29 28 27 26 26 25 24 23 23 22 22 21 21 21 20 19 19 19 19 19 19
32 32 32 32 32 32 33 33 33 33 33 32 31 31 31 30 30 30 30 30 29 29 28 28 27 26 25 25 24 23 22 22 21 21 20 20 19 19 18 17 17 17 17 17
31 31 31 31 32 32 32 32 32 32 31 31 30 30 30 30 30 30 30 29 28 28 28 27 26 25 24 24 23 22 22 21 20 19 19 18 18 17 16 16 16 16 16 16
30 31 31 31 32 32 32 31 31 31 31 30 30 30 30 30 30 30 29 28 28 27 26 25 24 24 23 23 22 21 20 19 19 19 18 17 16 16 16 16 15 16 16 16
30 31 31 31 31 31 31 31 31 31 31 30 30 30 30 30 29 28 28 27 27 26 25 24 23 23 22 21 20 19 19 19 18 18 17 16 16 16 16 16 15 15 15 15
31 31 31 31 31 31 31 31 31 31 30 30 30 29 29 29 28 27 26 26 26 25 23 23 22 21 20 20 19 19 18 18 18 17 17 17 17 16 16 16 16 15 15 15
30 29 29 29 29 29 29 30 30 30 29 29 29 29 29 28 26 26 25 25 24 23 22 21 21 20 20 19 19 19 18 18 17 17 17 17 17 16 16 16 16 16 15 16
28 27 27 27 27 28 28 28 28 28 28 28 29 28 27 26 25 25 24 23 22 21 21 21 20 19 19 18 19 18 18 18 17 17 17 17 17 17 16 16 16 16 16 16
26 26 26 26 26 26 26 26 26 26 26 26 26 26 25 24 23 23 23 22 21 21 20 20 19 18 18 18 18 18 18 17 17 17 17 17 17 16 16 16 16 16 16 16
Wind_Direction
301 299 298 299 299 297 297 298 299 300 300 301 300 299 299 300 300 299 299 298 298 297 297 295 295 293 291 289 287 284 280 278 276 274 272 271 269 268 267 265 264 264 262 261
300 299 298 299 299 298 298 298 298 299 300 300 300 300 300 300 301 300 300 300 299 299 298 297 295 294 293 290 287 285 282 279 276 274 273 271 270 269 267 266 264 264 263 261
300 300 299 299 301 300 298 299 299 300 301 300 300 300 300 301 301 301 301 302 302 301 299 298 297 295 293 290 287 284 282 279 277 275 273 272 271 271 269 267 265 264 263 261
299 300 299 302 301 300 300 300 300 300 300 300 300 300 301 302 302 302 302 303 304 302 301 299 297 296 296 292 288 286 283 280 279 276 275 275 274 273 271 269 266 265 263 262
299 299 300 302 302 302 301 301 300 300 300 299 300 300 301 302 302 303 303 303 304 304 303 301 299 297 297 295 291 288 284 281 280 278 276 275 275 274 272 271 268 267 264 262
298 299 300 303 303 303 302 301 302 301 301 301 301 301 301 301 302 303 303 304 304 304 304 302 300 298 297 296 294 290 286 283 281 280 277 275 274 273 272 271 270 268 266 265
298 299 300 303 303 303 302 303 302 301 301 301 301 302 302 302 303 303 304 304 304 304 304 303 301 299 299 297 296 292 287 285 283 281 279 277 275 273 272 272 270 269 267 265
299 299 302 302 301 302 302 301 301 301 301 302 302 303 304 305 305 305 305 305 304 303 304 304 302 301 300 299 298 295 290 287 286 284 281 279 277 274 274 273 271 270 268 266
298 299 300 301 301 302 302 301 301 301 302 303 303 304 304 305 305 305 305 305 304 303 304 304 303 302 301 300 299 296 294 292 290 286 283 281 278 275 274 273 272 271 269 266
297 298 299 299 300 301 302 302 302 302 302 303 304 304 304 305 305 305 305 305 304 304 304 303 303 302 302 301 299 297 295 294 293 289 284 281 279 276 274 273 272 271 270 266
298 299 298 299 300 301 301 301 301 302 302 303 305 305 305 305 305 305 305 305 304 304 304 304 303 302 301 301 300 298 296 295 293 290 287 284 281 278 275 273 272 271 269 265
299 299 298 299 299 299 300 300 300 301 303 303 304 305 305 305 305 305 305 305 305 305 305 304 304 303 302 300 299 298 296 295 294 292 289 285 283 281 277 273 270 270 267 264
299 299 299 299 299 300 300 301 301 302 303 304 304 304 305 304 305 305 306 306 306 306 306 304 304 304 302 302 301 300 297 295 294 293 291 289 285 281 278 275 272 269 267 265
299 299 299 299 299 300 301 301 302 303 304 304 304 304 305 305 306 306 306 306 306 306 306 305 304 304 303 302 301 300 299 297 295 294 293 290 287 283 279 275 272 270 268 266
297 298 298 299 300 300 301 301 302 303 304 304 304 304 305 306 306 305 305 306 306 305 305 305 304 304 304 303 303 301 299 297 296 295 293 291 289 286 282 277 272 269 268 266
297 297 298 299 300 301 301 302 303 304 304 304 304 305 305 305 306 306 305 305 305 305 304 304 304 303 303 302 302 302 301 299 298 297 296 293 289 287 284 281 277 272 268 267
297 298 298 299 300 301 302 303 303 304 305 305 305 305 304 305 306 307 306 305 305 304 304 304 304 303 302 302 302 301 301 301 301 300 298 296 293 289 286 284 279 275 271 269
297 299 299 299 300 301 302 303 303 304 305 306 306 306 305 305 306 306 306 304 304 304 305 304 304 303 302 302 302 302 301 300 300 301 299 297 296 294 289 285 282 278 274 271
298 299 300 300 301 302 303 305 305 306 306 306 306 306 306 306 307 307 306 305 304 304 304 304 304 303 303 303 303 303 301 300 300 300 299 297 296 295 292 288 284 280 276 274
298 299 300 301 302 303 304 305 306 307 307 307 307 307 307 307 308 308 307 306 305 304 304 304 304 304 304 304 303 302 300 300 299 298 298 298 296 294 292 290 286 283 278 275
298 298 299 301 302 303 303 305 306 306 306 306 307 307 307 308 308 308 308 307 306 305 305 304 303 303 304 304 303 301 300 300 299 297 297 297 295 294 292 290 287 283 279 277
299 300 300 301 301 303 304 305 306 306 306 306 306 307 308 308 308 308 308 308 307 306 305 304 303 303 303 304 303 301 299 299 299 297 297 296 294 292 291 290 288 285 281 278
302 301 301 301 302 303 304 304 306 306 306 306 307 308 308 309 309 308 308 308 308 307 306 305 305 304 304 303 303 301 299 298 298 297 296 295 295 293 291 289 287 286 283 278
302 302 302 303 303 303 304 304 305 306 306 307 307 308 309 309 309 309 309 309 308 307 306 306 306 305 305 305 303 301 300 299 298 297 296 295 294 293 291 289 287 285 282 278
305 304 303 304 304 304 305 306 306 306 307 307 308 309 309 309 308 309 310 310 310 308 307 306 306 306 306 306 305 303 302 301 298 297 296 295 294 293 291 288 286 284 282 279
310 309 308 307 306 306 307 307 307 307 307 308 309 310 309 308 308 309 310 310 309 308 308 308 308 308 307 305 306 305 303 301 299 298 297 296 294 292 291 289 287 284 283 283
313 312 311 311 310 310 310 310 309 309 310 310 310 311 310 309 310 310 310 309 309 308 308 309 310 309 308 307 307 308 305 302 300 299 299 298 296 293 291 290 288 286 285 285
Height
5650 5645 5641 5638 5634 5630 5625 5620 5616 5612 5607 5603 5597 5592 5587 5582 5577 5573 5568 5563 5558 5553 5548 5544 5539 5534 5530 5526 5523 5519 5517 5515 5513 5511 5510 5509 5508 5508 5507 5507 5508 5508 5509 5510
5640 5636 5632 5628 5625 5620 5616 5611 5606 5601 5597 5592 5587 5581 5577 5572 5567 5562 5557 5552 5547 5542 5537 5532 5527 5522 5518 5514 5510 5507 5504 5502 5500 5499 5498 5496 5495 5494 5494 5494 5494 5495 5495 5496
5631 5627 5622 5619 5616 5611 5606 5601 5596 5591 5588 5582 5577 5572 5567 5562 5557 5552 5546 5541 5536 5531 5525 5520 5515 5510 5506 5501 5498 5494 5492 5489 5488 5486 5485 5484 5483 5482 5481 5481 5481 5481 5481 5482
5620 5617 5612 5612 5606 5601 5596 5591 5586 5581 5576 5571 5566 5561 5556 5551 5546 5541 5536 5531 5525 5519 5514 5508 5503 5498 5493 5489 5485 5482 5479 5477 5475 5474 5473 5471 5470 5469 5468 5468 5468 5468 5468 5468
5610 5605 5602 5601 5596 5590 5585 5581 5576 5571 5566 5561 5556 5551 5547 5541 5536 5531 5525 5520 5514 5508 5503 5497 5492 5487 5482 5478 5474 5470 5467 5465 5464 5462 5460 5459 5458 5457 5456 5455 5455 5455 5455 5455
5600 5595 5591 5591 5585 5579 5575 5571 5566 5561 5556 5551 5546 5542 5538 5531 5526 5520 5515 5509 5504 5498 5492 5486 5481 5476 5471 5467 5463 5459 5456 5454 5452 5450 5449 5447 5446 5445 5444 5444 5443 5443 5443 5443
5590 5584 5581 5579 5573 5568 5565 5562 5555 5550 5545 5541 5536 5532 5527 5521 5516 5510 5504 5499 5493 5487 5481 5476 5471 5466 5461 5457 5453 5449 5446 5444 5441 5440 5438 5436 5435 5434 5433 5432 5432 5432 5431 5431
5579 5575 5574 5568 5563 5559 5555 5550 5545 5540 5535 5531 5526 5521 5516 5511 5505 5500 5494 5489 5483 5477 5472 5466 5461 5456 5452 5447 5443 5439 5436 5434 5432 5430 5428 5426 5425 5424 5423 5422 5422 5421 5421 5421
5570 5568 5562 5557 5553 5549 5544 5540 5535 5530 5526 5521 5516 5511 5506 5501 5495 5490 5484 5479 5473 5468 5463 5457 5452 5447 5443 5438 5434 5431 5428 5425 5423 5421 5419 5417 5416 5415 5414 5412 5412 5411 5411 5411
5560 5556 5552 5547 5542 5538 5534 5529 5525 5520 5516 5511 5506 5501 5496 5491 5485 5480 5474 5469 5464 5459 5454 5449 5443 5438 5434 5430 5426 5423 5420 5417 5414 5412 5410 5408 5407 5405 5404 5403 5402 5402 5401 5401
5549 5546 5542 5538 5533 5529 5524 5519 5515 5510 5506 5501 5496 5491 5486 5481 5475 5470 5465 5460 5455 5450 5445 5440 5435 5430 5426 5422 5418 5415 5412 5409 5407 5404 5402 5400 5398 5396 5395 5394 5393 5393 5392 5392
5540 5536 5532 5528 5523 5519 5514 5510 5505 5501 5496 5491 5486 5481 5476 5471 5465 5460 5455 5450 5445 5440 5435 5431 5426 5421 5418 5414 5411 5408 5405 5402 5399 5396 5394 5392 5390 5388 5386 5385 5384 5383 5383 5383
5530 5525 5521 5517 5513 5509 5504 5500 5495 5491 5486 5481 5476 5471 5466 5461 5456 5451 5446 5441 5436 5431 5427 5422 5418 5414 5410 5407 5403 5400 5397 5394 5391 5388 5385 5383 5381 5380 5378 5377 5376 5375 5375 5375
5519 5515 5511 5507 5503 5499 5494 5490 5486 5481 5476 5471 5466 5461 5456 5451 5446 5441 5437 5432 5428 5423 5419 5414 5410 5407 5403 5399 5396 5392 5389 5386 5383 5380 5378 5375 5373 5372 5370 5369 5368 5367 5367 5366
5509 5505 5501 5497 5493 5489 5485 5480 5476 5471 5466 5461 5456 5452 5447 5442 5437 5433 5428 5424 5419 5415 5411 5407 5403 5399 5395 5392 5388 5385 5382 5379 5376 5373 5370 5368 5366 5364 5362 5361 5360 5359 5359 5358
5499 5495 5491 5488 5484 5479 5475 5470 5466 5461 5456 5452 5447 5442 5438 5433 5428 5424 5419 5415 5411 5407 5403 5399 5395 5392 5388 5385 5381 5378 5375 5372 5369 5366 5363 5361 5358 5356 5355 5353 5352 5351 5351 5350
5489 5485 5482 5478 5474 5470 5465 5461 5456 5452 5447 5443 5438 5433 5429 5424 5420 5415 5411 5407 5403 5399 5395 5391 5388 5384 5380 5377 5374 5371 5368 5365 5362 5359 5356 5354 5352 5350 5348 5346 5345 5344 5343 5342
5479 5476 5472 5468 5464 5460 5456 5451 5447 5443 5438 5433 5429 5424 5420 5415 5411 5407 5402 5398 5394 5391 5387 5383 5380 5376 5373 5370 5367 5364 5361 5358 5355 5353 5350 5348 5345 5343 5341 5340 5338 5337 5337 5336
5469 5466 5462 5458 5454 5450 5446 5442 5438 5434 5429 5425 5420 5416 5411 5407 5403 5398 5394 5390 5387 5383 5379 5375 5372 5368 5365 5362 5359 5356 5354 5351 5349 5346 5344 5342 5339 5337 5335 5333 5332 5331 5330 5329
5460 5456 5453 5449 5445 5441 5437 5433 5429 5425 5421 5416 5412 5408 5403 5399 5395 5390 5386 5382 5378 5375 5371 5368 5364 5361 5358 5355 5352 5350 5347 5345 5342 5340 5338 5336 5333 5332 5330 5328 5327 5325 5324 5323
5451 5447 5444 5440 5436 5432 5429 5425 5421 5416 5412 5408 5404 5400 5395 5391 5387 5383 5378 5375 5371 5367 5363 5360 5357 5354 5351 5348 5346 5343 5341 5338 5336 5334 5332 5330 5328 5326 5324 5323 5321 5320 5319 5318
5442 5438 5435 5431 5428 5424 5420 5416 5412 5408 5404 5400 5396 5392 5388 5383 5379 5375 5370 5367 5363 5360 5356 5353 5350 5347 5345 5342 5339 5337 5334 5332 5330 5328 5326 5324 5323 5321 5319 5318 5317 5315 5314 5313
5433 5429 5426 5423 5419 5415 5412 5408 5404 5400 5396 5392 5388 5384 5380 5375 5371 5367 5363 5359 5356 5352 5349 5346 5343 5341 5338 5335 5333 5331 5329 5327 5325 5323 5321 5319 5317 5316 5314 5313 5311 5310 5309 5307
5424 5421 5417 5414 5410 5407 5403 5399 5396 5392 5388 5384 5380 5376 5372 5368 5363 5359 5356 5352 5349 5345 5342 5340 5337 5334 5332 5329 5327 5325 5323 5321 5319 5317 5316 5314 5312 5311 5309 5308 5306 5305 5304 5302
5416 5412 5409 5405 5402 5398 5395 5391 5387 5383 5380 5376 5372 5368 5364 5360 5357 5353 5349 5346 5342 5339 5336 5333 5331 5328 5326 5324 5322 5320 5318 5316 5314 5312 5310 5309 5307 5305 5304 5302 5301 5300 5298 5297
5408 5404 5401 5397 5394 5391 5387 5383 5380 5376 5372 5368 5364 5361 5357 5353 5350 5346 5343 5339 5336 5333 5331 5328 5325 5323 5321 5319 5317 5314 5312 5310 5308 5307 5305 5303 5301 5300 5298 5297 5295 5294 5293 5292
5401 5397 5393 5390 5386 5383 5380 5376 5372 5369 5365 5361 5358 5354 5350 5347 5343 5340 5337 5334 5331 5328 5325 5323 5320 5318 5316 5314 5312 5309 5307 5305 5303 5301 5299 5298 5296 5294 5293 5291 5290 5289 5287 5286